Location: Waldport
(44.4270°N, 124.0680°W)
Time: 05:59:26
(UTC-08:00)

Tiangong 2 - Visible Passes

Search period start: 16 February 2019 00:00
Search period end: 26 February 2019 00:00
Orbit: 381 x 390 km, 42.8° (Epoch: 16 February)

Date Brightness Start Highest point End Pass type
(mag) Time Alt. Az. Time Alt. Az. Time Alt. Az.
16 Feb 1.4 18:36:34 10° W 18:39:42 60° S 18:42:14 14° ESE visible
16 Feb 4.0 20:13:31 10° W 20:14:29 16° WSW 20:14:29 16° WSW visible
17 Feb 2.3 19:14:09 10° W 19:17:05 36° SSW 19:18:13 26° SSE visible
18 Feb 1.9 18:14:52 10° W 18:17:57 48° SSW 18:21:01 10° ESE visible
18 Feb 3.6 19:52:13 10° WSW 19:54:16 16° SSW 19:54:16 16° SSW visible
19 Feb 3.1 18:52:34 10° W 18:55:14 24° SSW 18:57:52 10° SSE visible
21 Feb 3.9 18:31:13 10° WSW 18:33:17 16° SSW 18:35:20 10° SSE visible
